Regional Weather Roundup
Issued by NWS

Home | Current Version | Previous Version | Graphics & Text | Print | Product List | Glossary On
Versions: 1 2 3 4 5 6 7 8 9 10 11 12 13 14 15 16 17 18 19 20 21 22 23 24 25 26 27 28 29 30 31 32 33 34 35 36 37 38 39 40 41 42 43 44 45 46 47 48 49 50
000
ASUS43 KBIS 011620
RWRND

NORTH DAKOTA REGIONAL WEATHER ROUNDUP
NATIONAL WEATHER SERVICE BISMARCK ND
1000 AM CST SUN MAR 01 2015

NOTE: "FAIR" INDICATES FEW OR NO CLOUDS BELOW 12,000 FEET WITH NO
SIGNIFICANT WEATHER AND/OR OBSTRUCTIONS TO VISIBILITY.


NDZ001>003-009>011-017-011700-
NORTHWEST NORTH DAKOTA

CITY           SKY/WX    TMP DP  RH WIND       PRES   REMARKS
WILLISTON      PTSUNNY   17  10  74 NW10      30.27R WCI   5
MINOT          PTSUNNY   12   5  73 W17       30.20R WCI  -5
MINOT AFB      CLOUDY    10   7  86 NW15      30.20R WCI  -6
$$

NDZ018>021-031>035-040>046-011700-
SOUTHWEST NORTH DAKOTA

CITY           SKY/WX    TMP DP  RH WIND       PRES   REMARKS
BISMARCK       MIX PCPN  19  12  74 NW15G26   30.23R WCI   5
DICKINSON      MOSUNNY   21  14  74 NW17      30.18R WCI   7
GARRISON         N/A     15   9  76 NW20      30.20R WCI  -2
HETTINGER ARPT MOSUNNY   20  13  74 NW17G24   30.23R WCI   5
$$

NDZ004>008-012>016-024-026-027-054-011700-
NORTHEAST NORTH DAKOTA

CITY           SKY/WX    TMP DP  RH WIND       PRES   REMARKS
GRAND FORKS    MOSUNNY   13   5  70 NW10      30.18R WCI   0
GRND FRKS AFB  CLOUDY    15   6  67 NW13      30.17R WCI   1
DEVILS LAKE    SUNNY     10   1  67 NW14      30.17R WCI  -5
$$

NDZ022-023-025-028>030-036>039-047>053-011700-
SOUTHEAST NORTH DAKOTA

CITY           SKY/WX    TMP DP  RH WIND       PRES   REMARKS
FARGO          PTSUNNY   14   4  64 SW12      30.21S WCI   0
JAMESTOWN      SUNNY     13   6  74 W17       30.18R WCI  -4
$$




USA.gov is the U.S. government's official web portal to all federal, state and local government web resources and services.